Probability
0 0 0 0 0 0 0 1 2 2 2 2 4 9 13 16 19 21 22 23 24 24 23 21 19 20 21 25 29 30 30 30 30 33 36 34 29 25 23 21 21 20 21 22
0 0 0 0 0 0 0 1 3 5 4 4 8 13 16 17 19 21 24 26 26 24 23 21 19 20 22 24 26 27 27 27 28 33 37 35 30 26 23 22 22 20 20 21
0 0 0 0 0 0 1 2 4 6 5 7 13 18 17 15 17 20 23 26 25 23 22 21 18 19 20 21 22 24 24 25 27 31 35 34 30 27 24 23 23 20 17 18
0 0 0 0 0 0 2 3 4 5 7 8 13 17 15 12 13 16 20 22 22 20 20 20 17 16 16 16 16 19 20 22 25 27 27 28 27 25 22 21 21 18 13 12
0 0 0 0 0 0 2 3 3 5 8 9 11 14 12 9 10 13 16 19 20 20 19 18 17 15 13 11 11 12 14 18 22 23 22 23 23 22 20 20 19 16 12 9
0 0 0 0 0 0 1 2 3 5 9 11 11 11 9 8 10 12 14 16 19 21 20 20 19 17 13 10 9 8 9 13 17 19 19 20 21 21 20 20 19 16 13 11
0 0 0 1 1 0 0 1 2 5 9 11 11 9 8 9 11 12 14 15 17 19 20 20 20 18 13 10 8 7 7 9 11 14 17 18 18 18 18 18 17 16 14 12
0 0 1 2 2 1 0 1 2 4 7 9 9 9 8 10 12 13 14 15 15 15 14 15 16 15 12 8 6 5 5 6 8 11 14 15 13 13 13 13 13 14 14 13
1 1 1 2 2 1 1 2 3 4 5 7 8 8 8 10 12 13 14 14 13 12 10 9 10 10 9 7 6 6 6 6 7 9 11 11 11 10 10 11 11 12 13 14
2 2 1 1 1 0 1 2 3 3 4 5 6 7 8 9 10 11 12 12 11 10 8 7 7 7 7 8 8 9 8 6 6 7 8 8 7 8 9 10 9 10 12 13
2 1 1 0 0 0 1 3 4 4 4 5 6 6 7 8 9 9 10 10 10 9 7 6 6 6 6 7 8 8 8 6 5 4 4 3 3 3 5 6 6 6 8 9
1 0 0 0 0 1 3 5 6 6 5 5 6 6 7 7 8 9 9 9 9 8 6 6 6 6 5 4 5 6 6 5 4 3 3 2 1 1 2 2 2 2 3 4
0 0 0 0 0 1 2 4 6 7 7 7 7 6 6 6 7 8 7 7 6 5 4 3 4 4 2 2 3 4 4 3 3 3 3 3 3 2 2 1 0 0 0 1
0 0 0 0 0 0 2 4 6 8 8 8 7 6 6 5 4 5 4 3 3 2 1 1 1 1 1 1 2 2 1 1 2 3 3 3 3 3 3 2 1 1 1 0
0 0 0 0 0 0 2 4 6 7 7 6 5 4 4 3 1 1 2 2 2 1 0 0 0 1 1 1 1 1 1 0 1 2 3 3 3 3 3 3 3 2 2 1
1 1 1 0 0 0 2 4 5 5 4 4 3 2 1 1 0 1 2 3 3 3 2 1 1 2 2 1 2 2 1 0 0 1 2 3 3 3 3 3 3 3 3 2
1 2 1 0 0 0 1 3 3 3 3 3 2 1 1 0 0 1 3 3 4 5 5 4 4 3 3 1 1 1 1 0 0 0 1 2 3 3 3 3 3 3 3 3
1 2 1 0 0 0 1 3 3 3 4 5 4 2 1 0 0 1 2 2 3 5 5 5 4 3 2 1 0 0 0 0 0 0 0 1 2 3 3 4 3 3 3 3
0 1 1 0 0 0 2 3 3 4 5 5 4 2 1 0 0 1 1 1 1 2 2 2 2 1 1 1 0 0 0 0 0 0 0 0 1 1 3 4 4 3 3 3
0 0 0 0 0 0 1 2 4 5 4 3 2 1 0 0 0 0 0 0 0 0 0 0 0 0 0 0 0 0 0 0 0 0 0 0 0 0 1 3 3 3 3 3
0 0 0 0 0 0 0 1 3 4 2 1 0 0 0 0 0 0 0 0 0 0 0 0 0 0 0 0 0 0 0 0 0 0 0 0 0 0 1 2 3 3 3 3
0 0 0 0 0 0 0 0 1 2 1 0 0 0 0 0 0 0 0 0 0 0 0 0 0 0 0 0 0 0 0 0 0 0 0 0 0 0 1 3 3 3 3 3
0 0 0 0 0 0 0 0 0 1 1 0 0 0 0 0 0 0 0 0 0 0 0 0 0 0 0 0 0 0 0 0 0 0 0 0 0 1 2 3 3 2 2 2
0 0 0 0 0 0 0 0 0 0 0 0 0 0 0 0 0 0 0 0 0 0 0 0 0 0 0 0 0 0 0 0 0 0 0 0 0 1 2 2 1 1 1 1
0 0 0 0 0 0 0 0 0 0 0 0 0 0 0 0 0 0 0 0 0 0 0 0 0 0 0 0 0 0 0 0 0 0 0 0 0 1 1 1 0 0 0 0
0 0 0 0 0 0 0 0 0 0 0 0 0 0 0 0 0 0 0 0 0 0 0 0 0 0 0 0 0 0 0 0 0 0 0 0 0 0 0 0 0 0 0 0
0 0 0 0 0 0 0 0 0 0 0 0 0 0 0 0 0 0 0 0 0 0 0 0 0 0 0 0 0 0 0 0 0 0 0 0 0 0 0 0 0 0 0 0
Wind_Speed
3 3 1 1 3 2 1 5 7 6 6 6 6 6 5 6 6 7 6 5 6 5 4 3 3 3 2 2 3 3 4 5 6 6 5 4 4 4 4 4 5 5 4 4
2 2 2 2 3 2 1 1 4 5 2 4 4 4 4 5 7 7 6 5 6 6 6 5 4 4 3 2 2 2 3 4 4 4 4 4 4 4 4 4 4 3 4 4
2 2 4 3 2 1 1 0 5 5 5 3 5 5 4 4 5 4 4 5 4 5 5 5 4 4 3 3 2 2 2 2 3 4 4 4 4 3 4 4 4 4 4 4
2 2 2 7 3 3 4 2 2 4 4 7 8 6 5 5 6 4 3 4 3 3 3 3 3 3 3 2 2 2 1 2 3 3 4 3 3 3 3 3 3 4 4 4
3 3 3 5 3 0 4 2 2 5 5 5 7 8 4 2 4 4 4 3 3 3 3 3 2 3 3 2 2 1 1 1 3 3 3 3 4 4 3 3 3 4 3 3
4 4 5 6 5 1 6 2 3 4 6 5 6 4 2 1 3 3 3 2 2 2 3 3 2 2 3 1 1 1 2 2 2 2 3 4 4 4 3 3 4 4 4 4
3 3 4 5 5 3 4 5 2 3 5 5 4 5 4 3 3 3 3 3 3 3 2 1 1 3 2 1 1 2 1 1 1 2 2 3 4 3 3 4 4 4 4 4
2 2 5 5 3 4 5 3 2 3 4 5 4 3 3 4 3 4 3 3 3 3 1 1 2 3 2 0 2 1 1 1 2 2 2 2 2 3 3 3 4 4 3 4
5 5 5 1 3 3 4 5 4 4 4 6 5 4 3 3 3 3 3 2 1 2 1 1 1 2 1 2 1 0 0 1 2 3 2 2 2 3 3 3 3 4 3 4
2 0 1 2 4 4 5 5 4 5 5 5 4 3 3 2 1 2 2 1 1 2 1 1 1 0 1 2 1 1 1 2 2 2 3 2 2 2 3 3 4 4 4 4
1 1 3 3 2 3 4 5 5 5 4 4 4 2 2 1 1 1 1 0 1 1 1 1 1 2 2 2 1 1 2 2 3 3 3 3 3 3 4 4 4 5 5 4
4 5 4 3 2 2 4 4 4 4 4 3 3 2 1 1 1 1 1 1 1 0 0 1 2 2 3 2 1 1 2 3 2 2 2 2 2 3 4 4 5 6 6 5
4 3 3 2 0 2 4 3 3 3 4 2 2 2 2 2 1 1 1 1 0 0 1 1 2 3 3 3 2 2 2 3 3 3 3 3 2 2 3 4 4 4 5 5
2 3 2 1 0 1 3 3 3 3 3 3 2 2 2 2 1 1 0 1 1 0 1 1 2 3 4 3 2 2 2 3 3 3 3 3 3 3 2 3 3 3 3 4
1 2 3 1 1 2 2 4 4 3 2 2 1 2 2 1 1 2 2 1 1 0 1 2 2 4 4 3 2 3 3 3 3 3 3 2 2 2 2 3 3 3 2 2
1 2 3 3 2 2 3 4 3 2 1 1 1 0 0 0 0 1 1 1 1 1 3 3 4 5 4 3 2 3 3 5 4 3 2 2 2 2 2 3 3 3 3 3
3 2 2 2 1 1 2 2 3 2 2 1 1 1 1 1 1 2 2 2 1 2 3 3 4 4 3 3 2 3 3 4 5 3 2 2 2 2 2 3 3 3 3 4
4 3 4 4 3 2 1 1 2 2 2 1 1 1 1 0 1 2 3 2 1 2 3 4 4 3 3 3 3 3 3 3 2 2 2 2 3 3 2 3 3 4 3 3
4 4 2 2 3 3 2 2 2 1 1 1 1 0 0 1 1 2 2 1 1 3 4 4 5 3 3 4 3 2 2 2 3 3 2 3 3 3 2 3 3 3 2 2
3 3 2 1 2 3 2 2 2 1 0 1 1 0 0 1 2 2 1 1 2 3 4 4 4 3 3 3 3 2 2 2 2 2 2 2 2 2 2 2 3 2 2 2
2 2 2 2 2 3 2 2 2 1 0 1 1 1 1 2 1 0 0 2 4 3 3 3 2 3 3 3 3 2 2 2 2 2 2 2 2 2 2 2 2 2 2 2
1 1 1 2 2 1 1 1 2 1 1 1 0 0 0 1 1 1 2 2 3 3 2 2 2 3 4 4 2 1 2 1 1 1 1 2 1 2 2 2 2 2 2 2
0 1 1 2 2 2 1 1 1 1 1 1 2 2 2 2 1 1 2 3 2 2 2 2 3 5 5 2 1 1 1 1 1 1 1 2 2 2 2 2 2 1 1 1
0 0 1 1 2 2 1 1 1 1 1 2 2 2 1 1 1 2 2 2 1 1 1 2 4 4 3 1 1 1 1 1 1 1 2 2 2 2 2 1 1 1 1 1
1 0 1 1 1 1 1 1 0 1 1 1 1 1 0 1 2 2 1 1 2 1 1 3 4 4 2 1 1 1 1 1 2 2 1 1 1 2 1 1 1 1 1 1
1 1 0 1 2 2 1 1 1 1 1 1 1 1 1 1 1 1 0 1 1 1 1 2 2 2 2 2 2 2 1 1 2 2 2 2 2 2 1 2 2 1 1 1
1 1 1 1 1 0 1 1 1 1 1 1 1 2 1 1 0 1 1 1 0 1 1 1 1 1 1 1 1 1 1 1 1 1 2 1 1 1 1 1 1 1 1 1
Wind_Direction
190 207 142 314 303 312 170 181 176 200 183 201 188 172 155 140 133 122 129 134 137 150 161 161 159 171 180 200 194 185 188 205 220 224 221 215 217 222 227 225 231 232 231 238
4 5 36 2 343 346 338 150 146 137 172 216 168 129 118 125 132 132 138 142 147 152 153 158 169 177 176 191 194 183 195 218 227 223 214 209 212 215 219 224 228 223 229 239
267 312 42 339 268 153 66 136 148 166 204 160 118 121 141 141 134 138 141 131 131 151 160 164 171 169 169 180 174 173 211 228 217 209 208 213 214 211 214 216 217 227 233 238
141 62 203 245 265 118 107 57 78 131 138 143 140 133 123 132 134 132 134 132 135 141 157 171 168 164 165 148 143 162 202 222 216 208 208 208 212 218 218 212 217 228 237 239
126 161 249 295 313 100 120 34 29 110 116 125 123 87 56 93 124 136 141 145 151 146 140 142 151 161 143 137 138 148 203 228 227 214 212 209 217 228 227 220 235 240 235 237
132 154 215 246 281 243 103 57 339 103 121 121 101 99 229 211 116 113 108 112 113 98 94 116 150 137 121 126 135 234 248 250 262 235 223 223 223 226 231 225 234 245 244 242
148 181 240 260 292 65 121 212 247 124 131 128 138 177 194 137 107 110 108 108 103 86 79 98 122 105 99 91 238 249 249 274 306 260 239 237 231 224 226 230 233 235 241 249
123 151 245 295 36 119 189 186 122 100 110 112 108 100 98 102 107 104 99 101 106 98 69 43 87 101 90 319 267 291 344 349 333 308 278 274 247 250 248 241 243 246 248 260
170 202 239 307 112 153 144 114 101 98 103 107 98 91 86 83 93 97 101 102 108 115 85 9 53 116 125 261 254 231 302 295 296 304 296 284 258 259 271 260 251 252 241 246
69 325 19 60 70 62 89 111 115 110 108 102 110 124 118 122 110 97 99 108 105 98 72 342 335 342 224 249 245 196 246 275 281 286 292 295 277 247 243 245 247 246 240 238
64 277 29 22 56 85 73 80 85 80 89 105 110 109 116 136 150 127 96 93 113 127 147 290 313 305 296 293 291 287 279 279 283 281 281 287 285 267 252 243 234 234 235 222
209 222 180 227 250 101 88 79 86 89 72 70 111 130 116 129 137 117 97 72 52 41 273 281 292 300 301 299 284 279 290 283 275 276 276 270 276 298 303 277 277 259 245 234
185 191 172 193 106 93 106 105 102 103 110 98 82 115 117 114 114 97 82 78 91 266 273 283 307 310 302 303 299 270 267 278 279 275 269 265 262 265 287 306 306 289 276 255
140 108 87 83 75 91 101 102 104 97 92 106 105 94 98 95 97 114 193 223 197 221 293 298 312 303 296 304 309 285 274 278 278 269 260 257 258 252 247 260 285 299 301 272
78 120 162 153 74 62 86 98 92 84 87 76 81 97 106 119 225 254 253 211 157 294 291 298 301 291 291 296 292 282 279 278 278 277 272 266 262 254 256 265 264 268 284 290
82 77 101 99 101 97 96 103 108 113 119 102 80 95 143 157 255 282 276 222 163 269 276 274 274 275 282 287 288 286 279 284 290 283 281 283 279 273 273 270 265 258 256 257
122 136 123 116 111 106 123 141 147 152 137 130 174 174 101 50 359 327 305 285 233 250 267 271 275 282 285 277 274 276 280 288 294 295 285 276 272 266 261 262 263 258 255 252
145 153 159 164 164 155 133 118 120 127 151 166 137 100 83 86 288 291 292 302 319 307 290 276 277 286 289 289 283 275 270 272 272 263 262 266 270 264 261 263 264 261 264 264
114 116 133 158 150 145 144 132 123 124 135 136 119 129 247 251 253 276 283 286 298 296 290 286 290 291 288 292 296 271 267 271 270 266 263 269 277 277 269 265 263 259 257 253
102 110 123 117 105 115 119 119 119 114 141 136 127 137 297 279 268 280 299 287 268 265 279 293 296 292 288 294 309 288 281 271 267 277 288 286 279 279 277 273 271 263 259 254
122 122 116 104 102 106 114 112 109 111 108 126 151 203 248 281 299 337 354 306 296 298 302 305 305 297 294 306 315 298 287 283 277 273 278 279 280 285 288 285 280 268 258 255
132 121 116 122 124 124 118 110 114 110 65 18 313 227 248 291 303 321 289 262 279 302 314 312 306 305 310 314 300 286 285 286 273 270 282 287 284 284 287 285 278 261 244 239
114 150 143 152 152 148 107 105 137 141 170 220 240 233 227 236 230 217 286 285 280 310 323 307 310 316 318 322 307 303 303 294 283 282 281 284 279 267 263 274 282 279 261 244
204 191 181 167 128 116 131 235 239 231 229 238 245 238 215 225 303 264 237 265 299 322 328 315 322 329 338 344 342 334 321 301 293 297 298 293 284 280 285 293 303 308 303 286
170 139 117 112 120 177 212 217 342 320 285 299 301 303 254 196 216 257 272 289 293 315 325 326 334 342 349 360 13 2 335 331 338 333 326 324 321 326 335 339 337 330 327 315
111 114 151 174 179 184 183 176 219 254 257 277 300 296 287 268 236 231 280 291 284 310 328 329 344 357 4 9 23 23 10 358 358 352 343 342 346 347 347 347 348 3 11 3
105 98 68 13 324 242 164 185 223 250 226 196 232 263 257 261 257 249 271 303 321 341 337 339 356 18 24 26 20 5 357 348 341 335 333 340 338 337 336 348 4 13 11 14